Bienvenue sur le site officiel de Randorun OI et
Bienvenue dans l’aventure!

« TOUS LES TRAILS 100% REUNION »

 

RAID 974 et SEMI RAID 974

29 et 30 Juin 2024

Le RAID 974 est un ultra trail qui propose la traversée de l’île du Port à Saint-Philippe, ou l’inverse car la course change de sens chaque année.

Le parcours traverse les cirques de Mafate et Cilaos et passe par le volcan du piton de la Fournaise en empruntant quelques sentiers parmi les plus difficiles de l’île. Quel que soit le sens emprunté, c’est une course exigeante de par la distance, le dénivelé, les sentiers et la variation des conditions.

En 2024, le départ du RAID 974 se fera à Saint-Philippe (Stade de Basse-Vallée) et l’arrivée au Port (Stade Nelson Mandela). Le départ est fixé à 0h00 le samedi 29 juin 2024. La distance du parcours est de 99 Kms avec un dénivelé positif de 5500 m environ.

Concernant le SEMI-RAID 974, le départ se fera à Cilaos (Stade Iréné Accot) et l’arrivée au Port (Stade Nelson Mandela). Le départ est fixé à 4h00 le samedi 29 juin 2024. La distance du parcours est de 57 kms avec un dénivelé positif de 2900 m (86 points : qualificatif pour le GR 2024).

CLASSEMENT DE LA CILAOS WOMEN TRAIL

11 MAI 2024

La Cilaos Women Trail (CWT) 2024, 100% féminin est à sa 10ème édition cette année. Deux épreuves au programme, la Super CWT (8ème édition) propose un parcours de 28,3kms avec un dénivelé positif de 2 200m, et la Cilaos Women Trail sur un tracé plus court de 19,7kms avec un dénivelé positif de 1100m.e Stade Irené Accot.

CLASSEMENT SCRATCH CWT 2024

CLASSEMENTNOMPRENOMCLUBDOSSARDCLAS. CATEGORIECATEGORIETEMPS
1PAYETXENATRAINING PERFORM CL3851FS 02:42:18
2PERRINCLAIREZOOM VOLT RUNNERS3872FS 02:42:32
3DAGUINMANON1293FS 02:49:28
4TAURINESCLAIRETRAINING PERFORM CL4514FS 02:49:47
5MAURERSANDRINE3291FM0 02:53:35
6LECLAIRANNEAS SAINT LOUISIENNE2911FM3 02:56:44
7MORELCLARINE61FM1 02:57:20
8GONTHIERAMELIE2115FS 03:00:15
9MOULYESTELLECS SAINT DENIS ATHL3576FS 03:00:24
10MOSSANALIX3557FS 03:02:11
11TURPINJULIE ESTELLE4728FS 03:03:43
12BLOEBAUMPAULINE542FM0 03:05:23
13DELVOYESTEPHANIEDENIV1502FM3 03:05:52
14REMOLIFLEA4139FS 03:14:00
15PAYETISABELLE THERESECAPP3791FM2 03:17:30
16TAIDENICOLE RITA4491FM5 03:17:31
17CASIRIAINMAITE9310FS 03:18:10
18DIETRICHEMILIE15711FS 03:19:50
19LOUIS-JEANESTELLE32012FS 03:19:52
20CHRISTINASTECY11213FS 03:20:34
21POUDROUXMELANIE4001FM4 03:20:59
22BOYERAURELIE673FM0 03:21:15
23DE LA HOGUELAURACAPOSS1402FM1 03:21:24
24HARAN - - RAZINLAIDA22914FS 03:21:54
25GRASSET-GOTHONANNA22015FS 03:22:04
26HUETVIRGINIE24516FS 03:22:24
27MONTARONNINA34417FS 03:23:13
28BARREYRELOU764FM0 03:23:24
29ARNOUALICE1918FS 03:23:46
30FRANSOLETCAMILLE19419FS 03:25:29
31BOUFFART-GOUTANOUK6120FS 03:26:08
32CARMESLENA9121FS 03:27:08
33ARROQUICAMILLE2022FS 03:27:36
34DAMOURREGINECAPP1313FM3 03:27:37
35DEGRYSE DIETRICHELODIE14223FS 03:28:00
36LE BRETONMARGAUX27524FS 03:28:29
37BOYERAURELIE685FM0 03:29:40
38LEPRINCEMANON30525FS 03:30:37
39BELLECMURIELRUN ODYSSEA4326FS 03:30:53
40COUDYMARIE1223FM1 03:30:56
41ARCHAMBAULTNADEGE182FM4 03:31:51
42BENARDANNE-CLAIRE446FM0 03:31:52
43PAUSEFLORENCE3772FM2 03:32:19
44DARDENNESMARGOT13327FS 03:32:39
45FRANCOISLEA19128FS 03:32:49
46GUILLOTSOLEN22529FS 03:33:47
47DANJOUCIDALIALA MONTAGNE ATHLETI1324FM1 03:34:07
48PIAUDMALAURY39230FS 03:34:19
49PRALONGBARBARA28931FS 03:34:34
50PADREALICIA37232FS 03:34:41
51HOARAUNATHALIE2363FM2 03:35:18
52COLOMBELMELINA11733FS 03:35:45
53TRULESANGELIQUE4687FM0 03:35:58
54SIRECLARA44634FS 03:37:36
55RENAUTOPHELIECAPOSS4148FM0 03:37:42
56GUILLOUXMARLENE22635FS 03:38:00
57EMERYVALERIEDENIV1709FM0 03:40:31
58GICQUELAZILIZ20536FS 03:41:11
59THONNONCYRIELLE46110FM0 03:41:43
60BOURHISCAROLE654FM2 03:42:21
61ANTOLINLAURIE1637FS 03:42:27
62ASPISHELENECAPOSS2238FS 03:43:21
63BUTTARDSTEPHANIE824FM3 03:43:22
64LEMONDMELISSA30139FS 03:43:55
65PAYETCHRISTINE3785FM1 03:44:05
66BEGUEMARIE LAURA416FM1 03:44:36
67BRIOISFREDERIQUE755FM2 03:44:37
68BRIDONDOLORES746FM2 03:44:40
69LEROUXEMILIE3087FM1 03:45:09
70MOREAUMARIE43740FS 03:45:12
71LEGERDELPHINEDSA2957FM2 03:45:51
72COLLOMBALISSON11611FM0 03:45:56
73ROSSIGNOLROMANE4301FE 03:45:58
74QUEGUINERALICE40241FS 03:45:59
75BENARDCATHERINERUN ODYSSEA453FM4 03:46:03
76BRIATTE BOUCHECLAIRE738FM1 03:46:32
77LIBESSARTLOUISECS SAINT DENIS ATHL31242FS 03:46:51
78MAMBOURGAGNES3249FM1 03:47:03
79PAYETJULIE38010FM1 03:47:08
80DURIEUXFANNY50711FM1 03:47:15
81BARKOLAURA3143FS 03:47:18
81MICHELLANDALICIA34243FS 03:47:18
83TOULLECGAELLE46545FS 03:47:20
84TREGOUETMARIE PIERRE4665FM3 03:47:31
85EL KHALLOUKINADIA16946FS 03:48:12
86PAYETWILDACAPP3848FM2 03:48:18
87AVENARDLEA2447FS 03:48:39
88DELATTEPAULINE14448FS 03:49:28
89DEMULLIERAURORE15112FM0 03:50:07
90SIMONMICHELLA4459FM2 03:50:11
91RIVIEREPRISCILLIA42613FM0 03:50:40
92GRONDINMARY PIERRE22112FM1 03:50:44
93LEBONELODIE REINE GUY28613FM1 03:50:45
94SAVATTEMAEVA50949FS 03:50:46
95BLASINMELODIE5310FM2 03:51:11
96LE BARSLOUISE27450FS 03:51:38
97TESSONCAROLINE45614FM0 03:51:46
98HOAREAURACHEL24351FS 03:51:54
99BENARD-POURBAIXLAURENCEAS SAINT LOUISIENNE4611FM2 03:52:02
100SERYFLORELLE44215FM0 03:52:43
101GLINTZBECKAGATHE20852FS 03:53:15
102GONTHIERRACHEL21316FM0 03:53:37
103LIMIERLAURENCE31553FS 03:53:46
104AIDATCIRCEE554FS 03:53:50
105DELVALMANONCA BEGLAIS14955FS 03:53:51
105LEDERMANNZOE29355FS 03:53:51
107GROSSSOPHIE22317FM0 03:54:06
108GERMAINJESSIE20414FM1 03:54:58
109ALLIOUXAMELIE957FS 03:55:19
110GOMINARDANAIS21058FS 03:55:28
111VILETTEMARIE49159FS 03:55:38
112CANONNEZOE9060FS 03:55:46
112GERBALZELIE20360FS 03:55:46
112HURELCLEMENCE24660FS 03:55:46
115GIRAUDCECILIA20718FM0 03:56:14
116PECQUEURSOPHIE38663FS 03:56:19
117GALLARDAMANDINE19864FS 03:56:58
118LABEROUEMMA26465FS 03:57:43
119BEAUVALLOLA3966FS 03:57:50
120VALLERIANAMANDINE47715FM1 03:57:53
121SERVATAUDREY44119FM0 03:58:33
122SERYSARAH44316FM1 03:58:34
123COUDERCLAIRE12167FS 03:58:41
124CHARVAISFANNY10668FS 03:58:56
124MORINSOLENE35469FS 03:58:56
126GONTHIERSOPHIE21412FM2 03:59:15
127BAESLAURARUN ODYSSEA2670FS 03:59:20
128HOARAUMARIE EVELINE2354FM4 04:00:42
129LEBLANCLAETITIA28571FS 04:00:48
130FONTAINEALINE18572FS 04:00:51
131CHAILLOTFLORINE10073FS 04:01:14
132FLORANCEISABELLEASSOCIATION SPORTIV18317FM1 04:01:24
133ABBEZZOTMARIE CINDYAS SAINT LOUISIENNE118FM1 04:01:50
134PATCHIECINDY37674FS 04:02:05
135GENNESSEAUXJULIE20220FM0 04:02:26
136TURPINAUDREY47075FS 04:02:34
137MAROUDEJESSYAS SAINT LOUISIENNE32813FM2 04:02:35
138DUVERGERSANDRINEOUEST TRAIL REUNION1686FM3 04:02:36
139BREUILSTELLIANEACSL7221FM0 04:02:59
140MULABLANDINE36176FS 04:03:00
141BARONNETJUSTINE3277FS 04:03:10
142JALBYSARAH24878FS 04:03:12
143TIOUIRAMARIE SYRIELLE4622FE 04:03:14
144LAMBINMEGANE26579FS 04:03:33
145RIOM BERLANDVALERIE4202FM5 04:04:02
146DE GAILLANDERACHEL13914FM2 04:04:15
147NAPALMAGALI36419FM1 04:04:25
148CRETINANAIS12780FS 04:04:31
149MOREAUCATHERINE34515FM2 04:05:09
150RENEYASMINA41522FM0 04:05:30
151GONTHIERMARIE-LAURE2127FM3 04:06:33
152DA ROCHACORALIE12881FS 04:06:55
153PRALONGCECILIA18982FS 04:07:01
154DRAPPIERCHARLENE16383FS 04:07:07
155TURPINMARIE ODILE4735FM4 04:07:10
156ROBERTSABRINA42916FM2 04:07:41
157LIEUTIERERIKA31317FM2 04:08:04
158RICHARTEAURELIE41823FM0 04:08:06
159ENGUEHARDLENA17184FS 04:08:10
160PLANTEELOISE39824FM0 04:08:44
161DUMONTCLEMENCE16785FS 04:08:57
162PERRINNINA38886FS 04:10:02
163CANONGEANAIS8987FS 04:10:13
164BOURASSLAAZIZA6420FM1 04:10:22
165BOISTELLAURENE5588FS 04:10:28
166ETHEVEDANY1751FM6 04:10:29
167CHEUNG SING LINGMATHILDE10989FS 04:10:35
167COULONYSALINE12390FS 04:10:35
169GINEVRADIANE20691FS 04:10:37
169PINCINLAETITIA39591FS 04:10:37
171DIETSCHSTEPHANIE15893FS 04:11:19
172WIARTMELANIE50325FM0 04:11:24
173PAYETMARIE PATRICIA38126FM0 04:11:27
174GAILLARDALICE19694FS 04:11:35
175LEICHNIGMATHILDE29821FM1 04:12:44
176LECHAPLAISCLARA29095FS 04:12:45
177PAPEGAYFLAVIA37496FS 04:13:42
178LE POUESARDBLANDINE28397FS 04:13:45
179RIGODANZOALEXIAAC SAINT-LEU41922FM1 04:15:12
180TURPINFANNYAS SAINT LOUISIENNE47198FS 04:15:24
181BUISSETMARCIA8099FS 04:15:34
182LEBRETONELODIEAS SAINT LOUISIENNE287100FS 04:15:56
183SCHEMBRIEMMA438101FS 04:16:11
184TAVERNIERZAHARA45223FM1 04:16:14
185PROUXMARIE-AMELIE401102FS 04:16:26
186JARSJULIA249103FS 04:16:32
187BOUGETTEPHILIPPINE62104FS 04:16:36
188PONCELETKARENE399105FS 04:16:40
189MOFFROID LAJUSMARION34327FM0 04:17:01
190PERSEEMARIE3898FM3 04:17:11
191LEBIANPAULETTECAPP2843FM5 04:17:12
192DALLEAUAURELIE13028FM0 04:17:17
193BONIFAISNATHALIEDENIV5718FM2 04:18:28
193RIBECQSANDRADENIV4179FM3 04:18:28
195ADAMSTEPHANIE224FM1 04:18:36
196LECOCQCELINE29219FM2 04:18:55
197JISTASABINE25310FM3 04:19:25
198VIGNALVANESSA49025FM1 04:19:55
199HOARAUSYLVIEAS SAINT LOUISIENNE23820FM2 04:19:56
200BEAUDOUINJULIA38106FS 04:19:57
201HOARAUREINE MAY2376FM4 04:19:58
202DUCLOSSALOME164107FS 04:20:03
203LAUFERONMARGAUX271108FS 04:20:09
204KOSLOWSKIMARYEVE26226FM1 04:20:16
205MALFILATREMARIE323109FS 04:20:30
206NOURRYMATHILDE367110FS 04:20:39
207ROUSSETEMMA433111FS 04:20:43
208PICARDMURIELLE394112FS 04:20:51
209LE BRUNROMANE277113FS 04:21:11
210DENISGWENDOLINE152114FS 04:21:41
211LE LAYSUZIE282115FS 04:21:50
212PAYETNATHALIEAS SAINT LOUISIENNE3837FM4 04:22:23
213THOMASMARION46027FM1 04:22:24
214MOUTOUCOMARAPOULEMARIE-FRANCOISEAC SAINT-LEU35911FM3 04:22:30
215DAVIDALICIA136116FS 04:22:32
216RATSIMIJERISONCLARA409117FS 04:23:29
217RIVIEREJOCELYNE42221FM2 04:23:36
218FONTAINEMORGANE LAURE18829FM0 04:23:37
219TURBANTCHRISTELLE46928FM1 04:24:04
220VETILLARDMARINE484118FS 04:24:45
221VETILLARDVIOLENE485119FS 04:24:46
222CALAOFABIENNE8412FM3 04:24:48
223HOARAUCORALIECAPOSS232120FS 04:25:37
224KACZORWSKIBARBARAAC ENTENTE NORD SAI256121FS 04:25:55
225HUBERTMARJELINE24429FM1 04:26:09
226GUIONMARINE227122FS 04:26:16
227PIQUERASALICIA396123FS 04:26:44
228PETITSYDNEAC SAINT-LEU39030FM0 04:26:47
229CLAINCHRISTELLE11330FM1 04:26:49
230L'HOSTISANNA311124FS 04:26:54
231BOYERDORIANE6931FM0 04:27:08
232DAUTRICOURTADELINE134125FS 04:27:15
233LOCQUENEUXMYRIAM31732FM0 04:27:18
234RAVOUXLEA41033FM0 04:27:26
235FILAINANGELA22431FM1 04:27:30
236JOUESTCELINERUN ODYSSEA25413FM3 04:28:04
237CANOJULIE8832FM1 04:28:27
238MERANCIENNEMARINE334126FS 04:28:50
239CAUCHEPINCELINE9414FM3 04:29:24
240BETHUEL-TROUBOULTIPHAINE5122FM2 04:30:17
241LENFANTPAULINE3023FE 04:30:26
242FRANGEULESTELLE192127FS 04:30:45
243BAUDRYGISELE3534FM0 04:30:54
243LE GUILLOUDELPHINE28033FM1 04:30:54
245BARBOUMARIE-CLEMENTINE2934FM1 04:30:55
246MAROTEAUAGATHE327128FS 04:31:01
247GONZALEZMARIE-ANGE2154FM5 04:31:26
248HOARAUANDREA230129FS 04:33:38
249CHATELUSELOISE107130FS 04:33:43
250VUICHARD--BOUVETJULIETTE499131FS 04:33:44
251DELBOSCELIA146132FS 04:33:45
252MOUTOUCOMARAPOULLEOUMADENIV36035FM0 04:33:53
253FITEISABELLE18223FM2 04:34:37
254BARBIERLUCILE28133FS 04:35:29
255HOAREAUCORINE2408FM4 04:35:33
256BURRERCLAIRE8136FM0 04:36:06
257BENOITPERRINE4737FM0 04:36:17
258COSMELEA119134FS 04:36:19
259OSTYAMELIE368135FS 04:36:32
260CHARITERSABRINA10235FM1 04:36:35
261FROGERCENDRINE19524FM2 04:37:57
262THERYMARION45838FM0 04:38:16
263GRONDINSYLVIE22239FM0 04:38:19
264RAMASSAMYEMILIENNE4085FM5 04:39:20
265DELOSPERRINE148136FS 04:39:34
266TETIAADELINE45736FM1 04:41:10
267LEROYFABIENNEPREPATRAIL30925FM2 04:41:21
268RIVIEREMARIE-LAURE424137FS 04:41:33
269VINGUEDASSALOMSANDRINE49340FM0 04:41:40
270MEISSONNIERGAELLE331138FS 04:42:42
271BROCHIERBERENGERE78139FS 04:42:43
272RADENACFANNY40441FM0 04:43:01
273WOLFFNELLY504140FS 04:43:12
274BEDROSSIANELODIEACOSL4037FM1 04:43:26
275HOARAULARISSA23338FM1 04:43:51
276FOCCIANGELA18442FM0 04:44:01
277MOTHEREBERTRICE3569FM4 04:44:14
278RENNEVILLEGENEVIEVE41610FM4 04:44:47
279ETRAYENJENNIFER17743FM0 04:44:49
279MEKACHERANADIADENIV33239FM1 04:44:49
281LEICHNIGSYLVIE29915FM3 04:44:50
282VAN EECKHOUTSABRINA47940FM1 04:44:55
283ROBERTCLARISSE42716FM3 04:44:58
284VINCENTJULIETTE49244FM0 04:46:16
285PANNETIERMARION37345FM0 04:46:17
286LASCARJUSTINE26946FM0 04:46:58
287DE FAYSCLAIRE138141FS 04:48:14
288LEROUXALISON306142FS 04:48:18
289VUEZJOANA49747FM0 04:48:21
290VERMONDJULIE48348FM0 04:49:17
291VIENNEGAELLE48949FM0 04:49:27
292STEINMETZANGELIQUE44726FM2 04:49:32
293DEFFAINSELISECAPOSS141143FS 04:49:35
294LAMYMARIE SOPHIE26627FM2 04:49:45
295SALEHBEATRICE43550FM0 04:50:10
296MEZINO LAURETMARIE THE3416FM5 04:50:21
297VANJYMARIE LINE48117FM3 04:50:29
298APOUTOUBARBARA1741FM1 04:50:34
299VOISINSANDRINE49528FM2 04:50:46
300ES SAKHIMYRIAM172144FS 04:51:07
301VANDROMECAMILLE480145FS 04:51:14
302MEYEREMILIE340146FS 04:51:16
303AUBERTMATHILDE23147FS 04:52:13
304KENKLEISABELLEAS SAINT LOUISIENNE25829FM2 04:52:23
305TECHERMELISSA VERONIQUE453148FS 04:53:26
306BOUVIERMARIE JOSIE6630FM2 04:54:55
307CONSEILCLEMENTINETEAM CILAOS51251FM0 04:55:13
308BOYERPAULINE71149FS 04:55:20
309MARIMALYNE CLAUDEAC ENTENTE NORD SAI3267FM5 04:55:32
310BONNETCHARLENEAS SAINT LOUISIENNE5852FM0 04:55:40
311GALHAUTJESSYAC SAINT-LEU19731FM2 04:55:41
312LEGASTGWEN29453FM0 04:55:45
313LE DUMAINA27954FM0 04:56:02
314DELATTEJULIE14355FM0 04:56:57
315VIENNEAURELIE48856FM0 04:57:42
316MARESTSANDRA32532FM2 04:58:02
317ROUCHOUSESOLENE431150FS 04:58:43
318TOLRONLAURIE-ANNE46357FM0 05:00:06
319CHARLETTINEMARIE NATHALIE10342FM1 05:00:14
320JETTERSABRINA25218FM3 05:00:24
321AGRAFEUILCINDY443FM1 05:00:25
322DERHETHAIS153151FS 05:00:26
323SEROTMARION439152FS 05:01:32
324SALEZAUDEDSA43658FM0 05:01:40
325GARCIAMARTA20159FM0 05:02:00
326REBECCHIAURELIADENIV41160FM0 05:02:06
327GARCIALAURALY199153FS 05:02:50
328GRAMMENOEMIE21961FM0 05:02:52
329DIEBOLTTINIA15619FM3 05:04:07
330STORASOPHIE44820FM3 05:04:24
331BASSANYANNIKE3433FM2 05:05:39
332BONFILSVALERIANNE5662FM0 05:05:49
333HOARAUCONSTANCE231154FS 05:06:41
334LEMANMARIE-ANGELIQUE30063FM0 05:06:51
335QUEMARMAELLA403155FS 05:06:54
336CAROPAULETTE9211FM4 05:06:55
337COURBINERICKA12544FM1 05:07:09
338NARDYGWENAELLETRIATHLON CLUB DE S36545FM1 05:07:18
339ETHEVEMANUREVA17664FM0 05:09:16
340BEAUDETHALONA37156FS 05:09:34
341MOREAUCLEMENCE346157FS 05:09:45
342LAN KING CHAKCECILE267158FS 05:09:46
343LE BRUNCHRISTINA27665FM0 05:10:01
344BIENAIMEMARIANNE5246FM1 05:11:20
345LEGOIXSARAH296159FS 05:11:34
346MERCEREAUSTACY336160FS 05:11:47
347MORELCARINE35047FM1 05:12:27
348MERCIERORNELLA33766FM0 05:12:28
349MAISONNEUVEBEATRICEDSA32121FM3 05:12:45
350PHIMPHAVONGCINDY391161FS 05:15:03
351FRAENKELCAROLINE19048FM1 05:15:31
352TENENBAUMANNE45534FM2 05:16:07
353LOUACHENIKAHINA31967FM0 05:16:09
354BARDELLEARUN ODYSSEA30162FS 05:16:12
355ROBERTMARION428163FS 05:16:14
356DIJOUXFABIENNETEAM CILAOS51022FM3 05:17:54
357HOAREAUJOHANE24135FM2 05:19:25
358LOSTYSCAROLE318164FS 05:19:44
359LEPAGNOLDEBORAH30468FM0 05:22:03
360LEGROSPASCALEDSA2978FM5 05:22:11
361LEPAGEADELE30369FM0 05:23:21
362DUJARDINPAULINE16549FM1 05:23:31
363CHARLETTINEREINE BLANCHE10450FM1 05:23:32
364VERNIERFAUSTINE50636FM2 05:23:41
365VASSELINEDWIGE48223FM3 05:23:42
366LAVAILLFAUSTINE272165FS 05:24:07
367LATCHOUMANECAROLE27024FM3 05:24:23
368REBOULSANDRINEAS SAINT LOUISIENNE41251FM1 05:24:24
369CHAMANDKATUSSIAAS SAINT LOUISIENNE10137FM2 05:24:25
370CHEVALIERISABELLEAS SAINT LOUISIENNE11138FM2 05:24:27
371DOBARIAJESSY16252FM1 05:26:03
372AVERTYCHLOE25166FS 05:27:30
372GOIXMARION209166FS 05:27:30
372MALETMIRELLAACSP32239FM2 05:27:30
375GOSSETNOA216168FS 05:30:30
375SILACZUKPAULINE444168FS 05:30:30
377FONTAINECLARISSE18653FM1 05:34:37
378CANIVETCORINNERUN ODYSSEA8712FM4 05:36:00
379PABIONVERONIQUE37125FM3 05:36:39
380WAGNEREMMANUELLEAS SAINT LOUISIENNE50070FM0 05:41:07
381CADETCHRISTIECAPOSS83170FS 05:41:28
382GOURGUESMICHELEAC SAINT-LEU21754FM1 05:41:45
383LARRIEUCARLYNE26871FM0 05:41:46
384POTHINJESSICATEAM CILAOS50826FM3 05:44:35
385ESSERTELCHARLOTTE17472FM0 05:45:04
386DUMASFLORENCERUN ODYSSEA16613FM4 05:46:45
387AGATHEJULIE3171FS 05:48:11
388RIVIEREKARINEAS SAINT LOUISIENNE42340FM2 05:48:32
389KAMALANDUAVELIANA25773FM0 05:49:04
389KERBIDICINDY26073FM0 05:49:04
391COSQUERCECILIA12055FM1 05:49:16
392CELESTESARAH9656FM1 05:49:22
393ANDICHYALEXANDRA1375FM0 05:49:23
393EVENECAROLINE17977FM0 05:49:23
395ANTOINEANNE SOPHIE15172FS 05:50:42
395CORCUFFHELENE11877FM0 05:50:42
395LOCKWOODADELINE31677FM0 05:50:42
398FEYNIEMONIQUE18127FM3 05:53:56
399DIJOUXJOELLE1609FM5 05:55:27
400WANNINSOPHIEAC ENTENTE NORD SAI50241FM2 05:55:47
401BOYEREMMELINE7057FM1 05:56:27
402CERESMATHILDE97173FS 05:57:12
402SERRESLAURA440173FS 05:57:12
402TARTARINCECILEBNA450173FS 05:57:12
405CALLIMOUTOUAUDREY8558FM1 05:58:45
406PICARDINGRID39379FM0 06:01:48
407BARRETMYRIAM3359FM1 06:02:32
408MEIERMARIE-ALIXE33014FM4 06:02:34
409COUTURIERSOPHIE12628FM3 06:14:16
410FANENEPAULA18042FM2 06:15:23
411PLAGNOLNINA397176FS 06:18:35
412LIEUTIERNATHALIE314177FS 06:22:09
413BONNETAINSANDRA6029FM3 06:30:34
413LE DRETLUDIVINEAC SAINT-LEU27843FM2 06:30:34
415VALLYMICHELE47880FM0 06:52:54
416PAYETNATHALIE38230FM3 06:53:14
417DJEARAMIN -CADIRVELOULINDA16160FM1 06:53:24
418BARATEAUERIKA2761FM1 06:54:14
419METROSABRINA33862FM1 06:54:16
420BAUXFANNY3644FM2 06:57:03
421THIERYSYLVIE45963FM1 06:57:06
422ALLINECORALIE845FM2 06:57:12
423MORELEMMANUELLE35231FM3 07:02:53
424MORELCHRISTINE35146FM2 07:02:54
425BIERNEDOLLYTEAM CILAOS51181FM0 07:06:02
426CANIOTCARINE86178FS 07:18:02
427METZGERCHRISTINE33910FM5 07:19:53
428DEURVEILHEREMILINE154179FS 07:23:59
429ISSARTIALLAURE24764FM1 07:30:54
430JUSNEL COUGOULATFLAVIE25565FM1 07:30:55
431RUINMAHE43482FM0 07:31:52
432HAN WAI YUANLINDA22847FM2 07:59:47

CLASSEMENT SCRATCH CSWT 2024

CLASSEMENTNOMPRENOMCLUBDOSSARDCLASS CATEGORIECATEGORIETEMPS
1ZARADZKIMARIONTRAINING PERFORM CL7281FM0 04:28:41
2BERLIOZLOUISEOUEST TRAIL REUNION6071FS 05:07:32
3PETRIZZELLILEA6972FS 05:28:05
4MUNSCHYLUDIVINE6861FM2 05:31:20
5CAZALBEATRICE6163FS 05:31:41
6LAPERROUSAZANOUK6654FS 05:43:32
7EYPERTLOUISE6375FS 05:46:55
8ESTAGNASIECAMILLE6356FS 05:47:24
9DEHLINGERSOPHIEAC SAINT-LEU6207FS 05:49:40
10VIGNALROSELYNESAINT-JO TRAIL TEAM7261FM5 05:53:02
11GODERONBEATRICE6431FM1 05:53:05
12SCHILDBERGLEA7088FS 05:53:08
13LAMEALBANE6639FS 05:54:21
14MORCRETTEANNABELLEDENIV68210FS 05:54:39
15RABILLOUDCHARLOTTE69911FS 05:54:55
16FREGONARA TARDIVOEMILIEAC SAINT-LEU6382FM1 05:56:04
17PAYETLAURA6942FM0 05:56:49
18HEMETTEANAIS6503FM0 05:59:13
19MAHEAMELIE67412FS 06:00:07
20HILPERTMARINE65113FS 06:06:01
21LHEUREUXCELINE67114FS 06:11:13
22DROUETCLARA63015FS 06:11:54
23MUSSARDCINDY6874FM0 06:12:00
24ECHECHLOE6333FM1 06:12:53
25LORRAINEVANESSA6734FM1 06:15:47
26BURKIMATHILDE61316FS 06:16:10
27ICARTCHARLINE65717FS 06:18:27
28HOARAUMARTINEDOMINICAINE A6535FM1 06:18:40
29GUESDONJEANNE64718FS 06:19:12
30BACOUJOHANNA60319FS 06:24:24
31GEORGEAULTLAETITIA6412FM2 06:25:03
32GLOANECMELANIE6425FM0 06:26:37
33ABBASSISYRINE6016FM0 06:31:33
34SUTRACORALIE7107FM0 06:37:28
35CZOPIKCHARLOTTE70620FS 06:37:54
36BIDOSSEMATHILDE60921FS 06:39:20
37MIGUETCELINE68022FS 06:39:36
38TAMILMARIE GLADYS7143FM2 06:40:25
39OLLIVIERNOLWENNCAPOSS68923FS 06:41:11
40TECHERJACQUELINE7172FM5 06:41:16
41HIRIBARNEMAITENA6526FM1 06:43:29
42GOUELLOELISA64524FS 06:45:11
43ICHARDFLORIANE65825FS 06:47:43
44DI LUCACATHERINE6244FM2 06:48:22
45SIOCHEJOHANNA7097FM1 06:49:03
46JERONVILLESEREINE65926FS 06:49:59
47SAINT-JEANCHLOE70727FS 06:50:15
48CALVEZSANDRA61428FS 06:50:33
49HOARAUSANDRINE6558FM0 06:53:08
50DURANDLISON63229FS 07:00:13
51MUGNIERYDOROTHEE6849FM0 07:00:24
52LAMOLYJULIETRAINING PERFORM CL66430FS 07:01:36
53TOCKAURELIE72131FS 07:01:37
54DOMELANDLEA62732FS 07:05:10
55BERNICOTCECILE60833FS 07:05:47
56DIOUANIYAMINA6255FM2 07:09:19
57MANICONFLORENCE6768FM1 07:10:50
58DARREMARGOT61910FM0 07:11:52
59LEPERLIEREMELYNE66934FS 07:18:32
60RASOANATOANDROZAFIZANAJANAKA7416FM2 07:18:36
61DOMERCQSIBYLLE62835FS 07:19:19
62BOUCHETNOEMIE61136FS 07:19:28
63VACCAROCAROLINE72237FS 07:19:47
64MANCIETMARGAUX67511FM0 07:19:48
65BEAUCHAMPCLEMENCE60538FS 07:20:16
66THOUVENINEMELINE72012FM0 07:21:10
67PAUSEAURELIE69013FM0 07:25:06
68BARETREINE-CLAUDE6043FM5 07:26:30
69VANDE VEKENJUSTINE72339FS 07:30:16
70BOYEDOMINIQUE6124FM5 07:31:02
71HUCHETVIRGINIE6569FM1 07:35:49
72PAYETLUCIE69514FM0 07:40:48
73DEVREDMARIE6217FM2 07:42:23
73LASNETAUDREY66610FM1 07:42:23
75LEMOINECHLOE66840FS 07:44:20
76MULLERBARBARA68511FM1 07:45:13
77GUERINEAUCAMILLE64641FS 07:46:16
78BEGUEMAUD6061FM3 07:46:20
79VERKINDERENCAROLINE72542FS 07:47:56
80MUSSARDSABINE6882FM3 07:51:17
81JUSTINEMAXED6603FM3 07:56:18
82LAGRILLECLAUDIE66112FM1 07:58:08
83MORCETALICE68143FS 08:05:11
84DUBROEUCQMARIE63144FS 08:10:20
85PERRONMARION69615FM0 08:10:27
86TAMBYFABIOLA71113FM1 08:15:51
87GUESNEUXEDWIGE6484FM3 08:17:19
88PAYETBRIGITTE6921FM4 08:22:27
89GAILLARDMALLORY64045FS 08:23:23
90VANHOVETERRIANE72446FS 08:27:03
91REBOULMARIE ANNE7025FM5 08:31:27
92BONNOTALIZEE61047FS 08:39:14
93TECHERCECILE71548FS 08:43:00
94ESPARONKARINE6345FM3 08:54:00
95LE ROICHARLIE66749FS 09:12:10
96RAJAONAMANUELAAC ENTENTE NORD SAI7002FM4 09:23:42
97QUODSARA69850FS 09:34:31
98MEIGNIENMARIE67851FS 09:34:45
99MERYCELIA67916FM0 09:51:27

Nos compétitions en 2024
Vous trouverez les détails de chaque trail de cette année en cliquant sur l’icône. 

jusqu’au 5 Mai 2024
Ouvert aux personnes, licenciées ou non, nées en 2003 ou avant.

11 Mai 2024
1er trail 100% feminin
10ème Edition

29 et 30 Juin 2024
La traversée de La Réunion
17ème Edition

31 Août 2024
La Course mythique des 3 cirques
30ème Edition

30 Novembre 2024
La seule course 100% Mafate
11ème Edition

15 Décembre 2024
Le trail des Masters
3ème Edition